[[{"header":{"parameterUnit":"m.s-1","parameterCategory":2,"la1":30.2991,"la2":30.254,"lo1":-89.0895,"lo2":-89.0444,"dy":0.0017,"dx":0.0017,"nx":28,"ny":28,"refTime":"2025-06-18T09:00:00:Z","depth":"0","parameterNumber":2,"parameterNumberName":"U-component_of_CURRENTS"},"data":[0,0,0,0,0,0,0,0,0,0,0,0,0,0,0,0,0,0,0,0,0,0,0,0,0,0,0,0,0,0,0,0,0,0,0,0,0,0,0,0,0,0,0,0,0,0,0,0,0,0,0,0,0,0,0,0,0,0,0.3039,0.3038,0,0.3012,0.3012,0.3012,0.2984,0.2983,0.2982,0.2982,0.3034,0.3036,0.3038,0,0,0,0,0,0,0,0,0,0,0,0,0,0.3034,0.3035,0.3039,0.3038,0.3038,0.3012,0.3012,0.3012,0.2984,0.2983,0.2982,0.2981,0.3034,0.3036,0.3039,0,0,0,0,0,0,0,0,0,0,0,0,0,0.3028,0.3035,0.3039,0.3018,0.3016,0.3012,0.3012,0.3012,0.2984,0.2983,0.2982,0.2981,0.3033,0.3036,0.3039,0.3079,0,0,0.3048,0.305,0,0,0,0,0,0,0,0,0.3028,0.3028,0.3022,0.3019,0.3017,0.2997,0.3029,0.3037,0.2984,0.3,0.2982,0.298,0.3028,0.3031,0.3032,0.3081,0.3084,0.3049,0.305,0.3052,0.3053,0,0,0,0,0,0,0,0.3029,0.3029,0.3032,0.3021,0.3018,0.2998,0.2997,0.303,0.3024,0.2998,0.2995,0.2987,0.3027,0.3029,0.3033,0.3084,0.3049,0.3051,0.3053,0.3054,0.3219,0.3221,0,0,0,0,0,0,0.3028,0.303,0.3032,0.303,0.3016,0.2999,0.2998,0.3007,0.3022,0.3022,0.2988,0.2986,0.3025,0.303,0.3035,0.311,0.3052,0.3055,0.3056,0.3216,0.322,0.3222,0,0,0,0,0,0,0.3029,0.3029,0.3033,0.3025,0.3024,0.3,0.3011,0.3007,0.3009,0.3013,0.3014,0.2993,0.3024,0.3031,0.3081,0.3111,0.3056,0.3059,0.3213,0.3217,0.3221,0.3243,0,0,0,0,0,0,0.3029,0.303,0.3044,0.3026,0.3024,0.304,0.3012,0.3007,0.3003,0.3,0.3018,0.3021,0.3024,0.3077,0.3084,0.3114,0.3061,0.321,0.3215,0.322,0.3239,0.3247,0.3254,0,0,0,0,0,0.3029,0.3058,0.3045,0.3045,0.3043,0.304,0.3039,0.3019,0.3005,0.3015,0.3033,0.302,0.3112,0.3081,0.309,0.3121,0.3208,0.3214,0.3219,0.3235,0.3245,0.3253,0,0,0,0,0,0,0.3075,0.3056,0.3043,0.3068,0.3054,0.3034,0.3041,0.3026,0.3046,0.3048,0.305,0.3057,0.3118,0.3124,0.309,0.3187,0.316,0.3167,0.3169,0.3179,0.3186,0.3174,0.3064,0,0,0,0,0,0.3087,0.3099,0.3076,0.3096,0.3089,0.3066,0.3063,0.305,0.3056,0.3062,0.3071,0.3101,0.315,0.3165,0.3206,0.3252,0.327,0.3282,0.3289,0.3295,0.3295,0.3357,0.3369,0.3241,0.3241,0.3241,0,0,0.3105,0.3102,0.3105,0.3105,0.3092,0.3091,0.3063,0.3064,0.3072,0.307,0.3098,0.3132,0.3174,0.323,0.3257,0.3233,0.3346,0.3302,0.3307,0.3303,0.3365,0.3377,0.3387,0.3245,0.3244,0.3243,0,0,0.314,0.3147,0.3155,0.3149,0.3132,0.3121,0.3122,0.3105,0.3108,0.3139,0.3154,0.3203,0.3251,0.3288,0.3314,0.3391,0.3392,0.3408,0.3421,0.3482,0.3493,0.3502,0.3548,0.3561,0.3399,0.3399,0.3399,0,0.316,0.3165,0.3159,0.3163,0.3153,0.3135,0.3132,0.3145,0.315,0.316,0.3154,0.3249,0.3281,0.3359,0.3387,0.3406,0.3434,0.3376,0.3489,0.3498,0.3507,0.3552,0.3566,0.3401,0.3401,0.3401,0.34,0,0.3188,0.3189,0.3197,0.319,0.3191,0.3189,0.3187,0.32,0.3198,0.3202,0.327,0.332,0.3364,0.3398,0.3415,0.3503,0.3502,0.3497,0.3456,0.3521,0.3565,0.3579,0.3403,0.3403,0.3402,0.3402,0,0,0.3223,0.3211,0.3211,0.3195,0.3196,0.3193,0.3224,0.3231,0.3241,0.3278,0.3305,0.3402,0.3411,0.3445,0.3479,0.3535,0.363,0.354,0.3542,0.3566,0.3761,0.3632,0.3635,0.3643,0.3645,0.3648,0.3767,0,0.323,0.3227,0.3228,0.3222,0.3207,0.321,0.3232,0.3251,0.3267,0.3299,0.3365,0.3415,0.3435,0.3461,0.3524,0.3612,0.3669,0.3598,0.3711,0.3714,0.3575,0.3647,0.3452,0.353,0.3781,0.3783,0.3785,0,0.3239,0.323,0.3217,0.3203,0.3199,0.3207,0.3217,0.3237,0.3291,0.3309,0.3366,0.3409,0.3514,0.3513,0.3679,0.3632,0.3698,0.3758,0.3764,0.3641,0.361,0.3508,0.3546,0.3399,0.3807,0.3805,0.3803,0,0.3224,0.3219,0.32,0.3196,0.319,0.3195,0.3202,0.3236,0.3242,0.3318,0.333,0.3449,0.3498,0.362,0.3721,0.3716,0.3886,0.3892,0.3839,0.3831,0.3684,0.3656,0.3572,0.4005,0.4005,0.4005,0.4004,0,0.3212,0.3196,0.3189,0.3173,0.3158,0.3174,0.317,0.3196,0.3233,0.3242,0.333,0.3365,0.3526,0.3623,0.3735,0.3815,0.3896,0.3853,0.3857,0.3686,0.3659,0.3537,0.3499,0.4009,0.4008,0.4007,0.4006,0,0.3182,0.3178,0.315,0.3143,0.314,0.313,0.3126,0.3122,0.3171,0.319,0.3216,0.3319,0.3444,0.358,0.3771,0.3796,0.3783,0.3917,0.369,0.3663,0.3446,0.3418,0.3265,0.32,0.3893,0.389,0.3888,0,0.3152,0.3135,0.3115,0.3085,0.3076,0.3063,0.3044,0.3084,0.3079,0.3155,0.3162,0.3275,0.3332,0.3532,0.3622,0.3765,0.3684,0.3636,0.3585,0.3402,0.3378,0.3261,0.3212,0.3421,0.3416,0.3411,0.3407,0,0.3086,0.309,0.3068,0.3013,0.2984,0.2949,0.2937,0.2926,0.2975,0.2996,0.3035,0.3094,0.3243,0.3276,0.3412,0.3485,0.3397,0.354,0.3425,0.3053,0.2851,0.2798,0.3375,0.3366,0.337,0.3373,0.3375,0.3377,0.303,0.3008,0.2977,0.292,0.288,0.2822,0.2772,0.2778,0.2762,0.2759,0.2878,0.2887,0.2948,0.3106,0.3153,0.3022,0.3123,0.2943,0.2949,0.2865,0.2702,0.3162,0.3098,0.3101,0.3103,0.3105,0.3107,0,0.2938,0.2921,0.2872,0.2791,0.2707,0.2724,0.2675,0.2616,0.2569,0.2591,0.2607,0.2558,0.2549,0.2597,0.2528,0.2437,0.2387,0.2372,0.2178,0.2188,0.2657,0.2531,0.2248,0.2248,0.2248,0.2248,0.2248,0.2248,0.2877,0.2819,0.2799,0.2635,0.2573,0.2444,0.2402,0.2346,0.2328,0.221,0.2137,0.2159,0.2169,0.2059,0.1922,0.1902,0.1794,0.1682,0.1771,0.209,0.2143,0.2194,0.2063,0.1687,0.1686,0.118,0.1176,0.1173]},{"header":{"parameterUnit":"m.s-1","parameterCategory":2,"la1":30.2991,"la2":30.254,"lo1":-89.0895,"lo2":-89.0444,"dy":0.0017,"dx":0.0017,"nx":28,"ny":28,"refTime":"2025-06-18T09:00:00:Z","depth":"0","parameterNumber":3,"parameterNumberName":"V-component_of_CURRENTS"},"data":[0,0,0,0,0,0,0,0,0,0,0,0,0,0,0,0,0,0,0,0,0,0,0,0,0,0,0,0,0,0,0,0,0,0,0,0,0,0,0,0,0,0,0,0,0,0,0,0,0,0,0,0,0,0,0,0,0,0,0.0454,0.0455,0,0.0543,0.0544,0.0545,0.0567,0.0566,0.0565,0.0565,0.0566,0.0567,0.0567,0,0,0,0,0,0,0,0,0,0,0,0,0,0.0354,0.0356,0.0454,0.0455,0.0456,0.0543,0.0544,0.0545,0.0567,0.0566,0.0565,0.0565,0.0566,0.0567,0.0567,0,0,0,0,0,0,0,0,0,0,0,0,0,0.0416,0.0356,0.0454,0.0477,0.048,0.0542,0.0544,0.0545,0.0567,0.0566,0.0565,0.0564,0.0566,0.0567,0.0567,0.0591,0,0,0.057,0.057,0,0,0,0,0,0,0,0,0.0412,0.0419,0.0473,0.0476,0.0479,0.0543,0.0509,0.0556,0.0567,0.0534,0.0565,0.0564,0.0551,0.0553,0.0573,0.0591,0.0591,0.057,0.0571,0.0571,0.0571,0,0,0,0,0,0,0,0.0408,0.0416,0.0489,0.0474,0.0478,0.0501,0.0508,0.0519,0.0545,0.0537,0.0539,0.0549,0.0552,0.0572,0.0573,0.0591,0.057,0.0571,0.0571,0.0572,0.0613,0.0614,0,0,0,0,0,0,0.0395,0.0412,0.0486,0.0492,0.0443,0.0503,0.0511,0.0523,0.0547,0.055,0.0549,0.0549,0.0571,0.0572,0.0573,0.06,0.0571,0.0572,0.0572,0.0613,0.0613,0.0614,0,0,0,0,0,0,0.0393,0.0401,0.0483,0.0453,0.0465,0.0505,0.0519,0.0525,0.0545,0.0557,0.0558,0.0561,0.057,0.0571,0.0593,0.0599,0.0572,0.0573,0.0612,0.0613,0.0614,0.0653,0,0,0,0,0,0,0.039,0.04,0.0406,0.0453,0.0467,0.0524,0.052,0.0528,0.0552,0.0553,0.0568,0.0567,0.057,0.0592,0.0594,0.06,0.0574,0.0611,0.0612,0.0613,0.0651,0.0656,0.0659,0,0,0,0,0,0.0386,0.04,0.0406,0.0415,0.0474,0.0525,0.0535,0.056,0.0553,0.0571,0.0582,0.0567,0.0599,0.0594,0.0596,0.0602,0.0611,0.0612,0.0613,0.065,0.0655,0.0659,0,0,0,0,0,0,0.0365,0.0405,0.0412,0.0439,0.0479,0.0529,0.0546,0.0561,0.0587,0.0581,0.0585,0.0587,0.0607,0.0601,0.0594,0.0616,0.0598,0.06,0.0625,0.0629,0.0633,0.0628,0.0574,0,0,0,0,0,0.0362,0.0382,0.0426,0.0449,0.0464,0.0504,0.0526,0.0545,0.0574,0.0585,0.0598,0.0603,0.0616,0.0619,0.0631,0.0648,0.0639,0.0649,0.0653,0.0656,0.0653,0.0655,0.0659,0.0618,0.0618,0.0618,0,0,0.0361,0.0386,0.0397,0.0446,0.0474,0.0509,0.0515,0.0551,0.0578,0.0579,0.0613,0.0621,0.0625,0.0648,0.0654,0.0642,0.0664,0.0658,0.0661,0.0655,0.0657,0.0661,0.0665,0.0619,0.0619,0.0619,0,0,0.0373,0.0389,0.0409,0.0443,0.0487,0.0513,0.0522,0.0571,0.0587,0.0626,0.0628,0.0645,0.0666,0.0676,0.068,0.071,0.0688,0.0704,0.0718,0.0721,0.0725,0.0727,0.0726,0.0729,0.0703,0.0703,0.0703,0,0.0367,0.0403,0.0426,0.0459,0.0486,0.0512,0.0545,0.0573,0.0625,0.0639,0.0636,0.0678,0.068,0.0706,0.0716,0.0718,0.0713,0.0702,0.0727,0.0729,0.0731,0.0729,0.0731,0.0705,0.0705,0.0704,0.0704,0,0.0396,0.0429,0.0445,0.049,0.0522,0.0556,0.0593,0.062,0.0635,0.0664,0.0696,0.0713,0.0734,0.0736,0.0735,0.0753,0.0742,0.0735,0.0715,0.0738,0.0734,0.0736,0.0708,0.0707,0.0706,0.0706,0,0,0.0369,0.0448,0.0452,0.0485,0.054,0.0573,0.0607,0.0653,0.068,0.0711,0.0749,0.0766,0.0771,0.0775,0.0778,0.0777,0.0791,0.0761,0.076,0.076,0.0795,0.0769,0.0768,0.0788,0.0788,0.0788,0.0788,0,0.0383,0.0448,0.0481,0.0542,0.0579,0.0613,0.065,0.0691,0.0721,0.0766,0.0773,0.081,0.0787,0.0804,0.08,0.0804,0.0796,0.0791,0.0772,0.0771,0.0746,0.0769,0.0783,0.0782,0.0789,0.079,0.079,0,0.0396,0.0441,0.05,0.0579,0.0595,0.0631,0.0689,0.0729,0.0783,0.0806,0.0833,0.085,0.0868,0.0843,0.0838,0.0837,0.0812,0.0802,0.0802,0.0763,0.0748,0.0759,0.0784,0.0736,0.0792,0.0792,0.0791,0,0.0372,0.0454,0.05,0.0528,0.0614,0.0639,0.0679,0.0737,0.0782,0.0836,0.0876,0.0891,0.0918,0.0888,0.0869,0.0855,0.086,0.084,0.0789,0.0787,0.0785,0.0782,0.076,0.082,0.082,0.082,0.082,0,0.0379,0.0418,0.0494,0.0524,0.0579,0.0636,0.0697,0.0737,0.0811,0.0875,0.0895,0.095,0.0929,0.0936,0.0891,0.0852,0.0875,0.0793,0.0786,0.0799,0.0798,0.0744,0.0716,0.082,0.082,0.082,0.082,0,0.036,0.0407,0.0468,0.0549,0.0575,0.0614,0.0714,0.0766,0.0827,0.0913,0.0937,0.1003,0.1014,0.0983,0.0955,0.0891,0.083,0.0823,0.0837,0.0831,0.0719,0.0693,0.0668,0.0676,0.0763,0.0762,0.0762,0,0.0365,0.0396,0.0474,0.0511,0.055,0.0619,0.0675,0.0759,0.0826,0.095,0.0998,0.1046,0.11,0.1051,0.0955,0.0874,0.083,0.0804,0.0769,0.0716,0.0682,0.0676,0.0685,0.0789,0.0789,0.0789,0.0789,0,0.038,0.0398,0.0443,0.0513,0.0572,0.0649,0.0737,0.0791,0.0901,0.0982,0.1095,0.1153,0.113,0.1086,0.0971,0.0896,0.0786,0.0794,0.0745,0.0702,0.0689,0.0694,0.0782,0.0787,0.0787,0.0787,0.0787,0.0787,0.0384,0.0411,0.0468,0.0531,0.0599,0.0686,0.0742,0.0843,0.0953,0.1089,0.115,0.1257,0.1189,0.105,0.0948,0.0751,0.0766,0.069,0.0664,0.0664,0.0664,0.0738,0.0727,0.0727,0.0726,0.0726,0.0726,0,0.04,0.0436,0.0496,0.0575,0.0643,0.0681,0.0796,0.0858,0.0973,0.1121,0.1226,0.128,0.1173,0.1032,0.0772,0.0649,0.0632,0.0587,0.0589,0.0607,0.0679,0.0671,0.064,0.064,0.064,0.064,0.064,0.064,0.0418,0.0464,0.0495,0.0605,0.0657,0.0742,0.0798,0.0889,0.1004,0.1156,0.1258,0.1352,0.1284,0.0853,0.0589,0.0532,0.0495,0.0477,0.0462,0.0503,0.0511,0.0519,0.0505,0.0439,0.0439,0.0431,0.043,0.043]}],[{"header":{"parameterUnit":"m.s-1","parameterCategory":2,"la1":30.2991,"la2":30.254,"lo1":-89.0895,"lo2":-89.0444,"dy":0.0017,"dx":0.0017,"nx":28,"ny":28,"refTime":"2025-06-18T09:00:00:Z","depth":"2","parameterNumber":2,"parameterNumberName":"U-component_of_CURRENTS"},"data":[0,0,0,0,0,0,0,0,0,0,0,0,0,0,0,0,0,0,0,0,0,0,0,0,0,0,0,0,0,0,0,0,0,0,0,0,0,0,0,0,0,0,0,0,0,0,0,0,0,0,0,0,0,0,0,0,0,0,0.1514,0.1513,0,0.1444,0.1444,0.1443,0.1593,0.1597,0.1602,0.1606,0.1858,0.186,0.1863,0,0,0,0,0,0,0,0,0,0,0,0,0,0.1646,0.1644,0.1514,0.1513,0.1512,0.1444,0.1444,0.1443,0.1592,0.1598,0.1603,0.1608,0.1857,0.186,0.1863,0,0,0,0,0,0,0,0,0,0,0,0,0,0.1587,0.1644,0.1514,0.1576,0.1581,0.1444,0.1444,0.1443,0.1591,0.1598,0.1605,0.1611,0.1856,0.186,0.1863,0.1748,0,0,0.1875,0.1876,0,0,0,0,0,0,0,0,0.159,0.1582,0.1568,0.1571,0.1576,0.1532,0.1582,0.156,0.1589,0.159,0.1606,0.1614,0.1772,0.1783,0.1754,0.176,0.1771,0.1875,0.1877,0.1879,0.188,0,0,0,0,0,0,0,0.1594,0.1585,0.149,0.1566,0.1571,0.1562,0.1563,0.1577,0.1651,0.159,0.16,0.1586,0.1778,0.1749,0.1762,0.1775,0.1875,0.1878,0.188,0.1882,0.2024,0.2025,0,0,0,0,0,0,0.1595,0.1589,0.1492,0.1487,0.1597,0.1555,0.1555,0.1542,0.1645,0.1663,0.158,0.1593,0.174,0.1757,0.1772,0.1868,0.1879,0.1882,0.1884,0.2022,0.2024,0.2026,0,0,0,0,0,0,0.1598,0.1587,0.1495,0.1535,0.1523,0.1546,0.1528,0.1536,0.1569,0.1632,0.166,0.1612,0.1746,0.1767,0.1828,0.1872,0.1884,0.1887,0.202,0.2023,0.2025,0.1918,0,0,0,0,0,0,0.1602,0.1589,0.1582,0.1534,0.152,0.1466,0.1521,0.153,0.1544,0.1562,0.1666,0.1693,0.1753,0.1822,0.1831,0.1878,0.189,0.2018,0.2021,0.2024,0.192,0.1917,0.1914,0,0,0,0,0,0.1607,0.1569,0.1582,0.157,0.1509,0.1465,0.1458,0.1499,0.1539,0.1553,0.1617,0.1693,0.1852,0.1822,0.1834,0.1883,0.2017,0.202,0.2024,0.1921,0.1917,0.1914,0,0,0,0,0,0,0.1603,0.1577,0.1593,0.1545,0.1532,0.1492,0.1502,0.1502,0.1546,0.1603,0.1661,0.169,0.1775,0.1831,0.1797,0.1942,0.1966,0.1972,0.1885,0.1882,0.1879,0.1916,0.1893,0,0,0,0,0,0.1594,0.1556,0.155,0.1494,0.1527,0.1514,0.1501,0.1531,0.155,0.1578,0.1632,0.1719,0.1777,0.1833,0.1895,0.1928,0.1992,0.199,0.1987,0.1983,0.2027,0.2111,0.2119,0.2037,0.2037,0.2037,0,0,0.1573,0.1537,0.1524,0.149,0.1504,0.1513,0.153,0.1543,0.1543,0.1597,0.1645,0.1699,0.1782,0.1844,0.1893,0.1909,0.2033,0.1988,0.1984,0.2031,0.2116,0.2124,0.213,0.204,0.2039,0.2039,0,0,0.1502,0.1509,0.1494,0.1497,0.1514,0.1516,0.1531,0.1542,0.1581,0.1585,0.1652,0.1725,0.1787,0.1861,0.1901,0.1916,0.2005,0.1962,0.1981,0.2059,0.2066,0.2073,0.2118,0.213,0.197,0.1969,0.1969,0,0.1517,0.1457,0.1476,0.1473,0.1478,0.1529,0.1544,0.1555,0.1564,0.1597,0.1627,0.174,0.1801,0.1882,0.1904,0.1912,0.1963,0.1969,0.2052,0.2061,0.207,0.2114,0.2129,0.1965,0.1965,0.1966,0.1966,0,0.144,0.1428,0.1429,0.1449,0.1452,0.1471,0.1517,0.1551,0.1593,0.1605,0.1701,0.1757,0.1847,0.1869,0.1887,0.1993,0.2007,0.2019,0.2046,0.2071,0.2117,0.2134,0.1958,0.196,0.1961,0.1962,0,0,0.1434,0.1401,0.1412,0.1417,0.1462,0.1454,0.1498,0.1548,0.1595,0.1644,0.17,0.1786,0.1853,0.1908,0.1954,0.2023,0.2092,0.2055,0.2061,0.2075,0.2254,0.2008,0.2003,0.2115,0.2118,0.2121,0.224,0,0.1415,0.138,0.1368,0.1363,0.1388,0.1447,0.1465,0.1514,0.158,0.1649,0.1753,0.1834,0.1857,0.1917,0.1987,0.2086,0.2143,0.2059,0.2254,0.226,0.2018,0.2017,0.1876,0.1949,0.2258,0.226,0.2263,0,0.1393,0.1351,0.1358,0.134,0.1373,0.138,0.1464,0.1484,0.1605,0.1667,0.1784,0.1865,0.1999,0.2003,0.2193,0.2142,0.2206,0.2261,0.2267,0.2102,0.2047,0.199,0.197,0.2292,0.229,0.2288,0.2286,0,0.138,0.1359,0.1354,0.1355,0.136,0.1391,0.1414,0.1511,0.1572,0.171,0.1791,0.1935,0.2048,0.2158,0.2281,0.2256,0.2469,0.2441,0.2276,0.2259,0.2214,0.2184,0.257,0.2569,0.2569,0.2569,0.2568,0,0.1361,0.1349,0.1356,0.1348,0.1393,0.138,0.146,0.1524,0.1621,0.1718,0.1822,0.1937,0.2102,0.2235,0.2313,0.2342,0.2501,0.2289,0.2277,0.2162,0.2128,0.2503,0.2493,0.2573,0.2572,0.2571,0.2571,0,0.1345,0.1347,0.1352,0.1365,0.1401,0.1436,0.1513,0.156,0.1643,0.178,0.1836,0.1994,0.2152,0.2274,0.2459,0.2363,0.2425,0.2397,0.2219,0.2177,0.2151,0.2136,0.2201,0.2193,0.2187,0.2182,0.2177,0,0.1356,0.135,0.1406,0.1449,0.1469,0.1517,0.1578,0.1627,0.1673,0.1816,0.1887,0.2053,0.2131,0.2245,0.2201,0.2224,0.2373,0.2016,0.19,0.2133,0.2117,0.2112,0.2105,0.182,0.1813,0.1807,0.1803,0,0.1373,0.1401,0.1378,0.1475,0.1551,0.16,0.1658,0.1691,0.1747,0.1822,0.1917,0.1964,0.2036,0.1949,0.1894,0.189,0.1976,0.188,0.2266,0.1867,0.1765,0.175,0.176,0.1751,0.1756,0.176,0.1763,0.1765,0.143,0.1414,0.1421,0.149,0.1594,0.1649,0.1641,0.1649,0.1688,0.1724,0.1817,0.179,0.1718,0.1527,0.1521,0.152,0.1604,0.1513,0.1538,0.1568,0.1434,0.1318,0.1198,0.1199,0.1201,0.1202,0.1204,0,0.1477,0.1422,0.1453,0.1526,0.1609,0.1661,0.1681,0.1609,0.1592,0.1613,0.1609,0.1329,0.1216,0.1283,0.1156,0.1024,0.1111,0.1027,0.1172,0.1218,0.1261,0.112,0.0797,0.0797,0.0796,0.0796,0,0,0.1501,0.1443,0.139,0.1509,0.1593,0.1626,0.1603,0.1502,0.1438,0.129,0.1221,0.117,0.1152,0.0925,0.0872,0.0865,0.1066,0.0841,0.1157,0.1376,0.142,0.1508,0.1334,0,0,0,0,0]},{"header":{"parameterUnit":"m.s-1","parameterCategory":2,"la1":30.2991,"la2":30.254,"lo1":-89.0895,"lo2":-89.0444,"dy":0.0017,"dx":0.0017,"nx":28,"ny":28,"refTime":"2025-06-18T09:00:00:Z","depth":"2","parameterNumber":3,"parameterNumberName":"V-component_of_CURRENTS"},"data":[0,0,0,0,0,0,0,0,0,0,0,0,0,0,0,0,0,0,0,0,0,0,0,0,0,0,0,0,0,0,0,0,0,0,0,0,0,0,0,0,0,0,0,0,0,0,0,0,0,0,0,0,0,0,0,0,0,0,-0.0035,-0.0034,0,0.0042,0.0042,0.0043,0.0026,0.0025,0.0024,0.0023,-0.0029,-0.0029,-0.0029,0,0,0,0,0,0,0,0,0,0,0,0,0,-0.0144,-0.0142,-0.0035,-0.0034,-0.0033,0.0042,0.0042,0.0043,0.0027,0.0025,0.0023,0.0022,-0.0029,-0.0029,-0.0029,0,0,0,0,0,0,0,0,0,0,0,0,0,-0.0086,-0.0142,-0.0036,-0.0032,-0.003,0.0041,0.0042,0.0044,0.0027,0.0025,0.0023,0.0021,-0.0029,-0.0029,-0.0029,0.0009,0,0,-0.003,-0.003,0,0,0,0,0,0,0,0,-0.009,-0.0083,-0.0033,-0.0032,-0.003,0.0024,-0.0014,0.0026,0.0027,0.0004,0.0022,0.002,-0.0021,-0.0022,-0.0003,0.0007,0.0004,-0.003,-0.003,-0.003,-0.003,0,0,0,0,0,0,0,-0.0094,-0.0086,-0.0006,-0.0032,-0.003,-0.0015,-0.001,-0.0006,-0.0002,0.0006,0.0005,0.0016,-0.0021,-0.0003,-0.0005,0.0004,-0.003,-0.003,-0.003,-0.003,0.0013,0.0015,0,0,0,0,0,0,-0.0101,-0.0089,-0.0009,-0.0004,-0.0064,-0.0012,-0.0006,0.0007,0.0001,-0.0,0.0018,0.0015,-0.0001,-0.0004,-0.0007,0.0027,-0.003,-0.003,-0.003,0.0012,0.0014,0.0015,0,0,0,0,0,0,-0.0103,-0.0094,-0.0012,-0.0044,-0.0033,-0.0008,0.0007,0.001,0.001,0.0012,0.0007,0.0013,-0.0003,-0.0007,-0.0001,0.0025,-0.003,-0.003,0.0011,0.0013,0.0014,0.0101,0,0,0,0,0,0,-0.0107,-0.0095,-0.0093,-0.0044,-0.0031,0.0034,0.0009,0.0013,0.0022,0.0018,0.0006,0.0001,-0.0005,0.0,-0.0001,0.0023,-0.0031,0.0009,0.0012,0.0014,0.0096,0.0105,0.0113,0,0,0,0,0,-0.0111,-0.0093,-0.0094,-0.0084,-0.0027,0.0035,0.0044,0.0053,0.0023,0.0041,0.003,0.0,0.0014,0.0002,0.0,0.0025,0.0008,0.0011,0.0014,0.0093,0.0104,0.0113,0,0,0,0,0,0,-0.0134,-0.0091,-0.0091,-0.0062,-0.0018,0.0032,0.0046,0.0048,0.0056,0.0035,0.0022,0.0019,0.0038,0.0017,0.0003,0.0043,0.0004,0.0007,0.0065,0.0075,0.0083,0.009,-0.0031,0,0,0,0,0,-0.0138,-0.0118,-0.0069,-0.0044,-0.0028,0.0003,0.0023,0.0032,0.005,0.005,0.0049,0.004,0.0056,0.005,0.006,0.0079,0.0054,0.0091,0.01,0.0107,0.0112,0.0095,0.0102,0.0025,0.0025,0.0025,0,0,-0.0138,-0.0113,-0.0101,-0.0048,-0.0023,0.0029,0.0009,0.0041,0.0085,0.0043,0.0082,0.0073,0.0069,0.0103,0.0107,0.0082,0.012,0.0111,0.0117,0.0118,0.0098,0.0106,0.0112,0.0027,0.0026,0.0026,0,0,-0.011,-0.0109,-0.0077,-0.004,0.0002,0.0032,0.0037,0.0082,0.0097,0.0136,0.0123,0.0132,0.0142,0.0163,0.0169,0.0227,0.0171,0.0213,0.0255,0.024,0.0246,0.025,0.0243,0.0246,0.0209,0.021,0.021,0,-0.0113,-0.0066,-0.0055,-0.0009,0.0026,0.0033,0.0086,0.012,0.0164,0.0186,0.0151,0.0191,0.0182,0.0239,0.0256,0.0249,0.0218,0.0219,0.025,0.0255,0.0258,0.0249,0.0251,0.0214,0.0214,0.0213,0.0213,0,-0.0053,-0.0016,0.0006,0.0066,0.0107,0.0149,0.0199,0.0232,0.0232,0.0263,0.0305,0.03,0.0313,0.032,0.0302,0.0335,0.03,0.027,0.0225,0.0271,0.0258,0.026,0.0221,0.0219,0.0218,0.0217,0,0,-0.0054,0.0032,0.0036,0.0078,0.0143,0.0186,0.0259,0.0336,0.0375,0.0394,0.0446,0.047,0.0434,0.0438,0.0417,0.0405,0.0411,0.0339,0.0336,0.0332,0.0367,0.0381,0.0383,0.0367,0.0367,0.0368,0.0353,0,-0.001,0.0081,0.0117,0.0209,0.0261,0.0297,0.0367,0.0427,0.0462,0.0512,0.051,0.0533,0.049,0.0473,0.0464,0.0429,0.0414,0.0417,0.0322,0.032,0.0326,0.0385,0.0316,0.03,0.0354,0.0354,0.0354,0,0.0031,0.0092,0.0176,0.028,0.0303,0.0345,0.0437,0.05,0.0574,0.0593,0.0613,0.0605,0.0616,0.0545,0.0512,0.0504,0.0438,0.0402,0.04,0.0381,0.0336,0.0259,0.03,0.0356,0.0356,0.0356,0.0356,0,0.0016,0.0131,0.0192,0.0226,0.0341,0.0369,0.0415,0.05,0.0562,0.0613,0.0649,0.0661,0.0648,0.0588,0.0527,0.0497,0.048,0.043,0.0389,0.0389,0.0299,0.0291,0.0389,0.0389,0.0389,0.0389,0.0389,0,0.0054,0.0108,0.0173,0.0208,0.0272,0.0341,0.0409,0.0464,0.055,0.0636,0.065,0.0717,0.0645,0.0643,0.0561,0.0503,0.0503,0.0415,0.0393,0.033,0.0326,0.034,0.0335,0.0388,0.0389,0.0389,0.0389,0,0.0047,0.0093,0.0158,0.0242,0.026,0.0286,0.0385,0.0463,0.0521,0.0631,0.0642,0.0738,0.074,0.0694,0.0616,0.055,0.0487,0.0454,0.04,0.0372,0.0392,0.0392,0.0406,0.0407,0.0407,0.0408,0.0408,0,0.0058,0.0083,0.0138,0.0178,0.0207,0.026,0.0325,0.0409,0.0505,0.0666,0.0734,0.0779,0.0856,0.0787,0.0641,0.0524,0.052,0.0397,0.0337,0.0421,0.0397,0.0396,0.0394,0.0248,0.0247,0.0246,0.0245,0,0.0072,0.0059,0.0111,0.0172,0.0219,0.0321,0.0407,0.0472,0.0608,0.0715,0.0877,0.0945,0.0884,0.0763,0.0607,0.0521,0.0415,0.0377,0.0473,0.027,0.0275,0.0251,0.0253,0.0238,0.0239,0.0239,0.024,0.024,0.0048,0.0069,0.011,0.0187,0.0267,0.0395,0.0458,0.059,0.0726,0.0887,0.0944,0.1009,0.0825,0.0611,0.0492,0.0365,0.0374,0.029,0.029,0.0292,0.0292,0.0299,0.0267,0.0268,0.0268,0.0269,0.027,0,0.004,0.0083,0.0153,0.0242,0.0359,0.0401,0.0553,0.0638,0.079,0.0906,0.1005,0.0823,0.0697,0.0556,0.0328,0.0208,0.018,0.0198,0.0151,0.0158,0.0164,0.0157,0.0096,0.0096,0.0096,0.0095,0,0,0.0044,0.0097,0.0154,0.032,0.0401,0.0533,0.0619,0.073,0.0819,0.0927,0.093,0.0875,0.0692,0.0466,0.0292,0.0212,0.0231,0.0203,0.0342,0.0311,0.032,0.0202,0.0197,0,0,0,0,0]}],[{"header":{"parameterUnit":"m.s-1","parameterCategory":2,"la1":30.2991,"la2":30.254,"lo1":-89.0895,"lo2":-89.0444,"dy":0.0017,"dx":0.0017,"nx":28,"ny":28,"refTime":"2025-06-18T09:00:00:Z","depth":"4","parameterNumber":2,"parameterNumberName":"U-component_of_CURRENTS"},"data":[0,0,0,0,0,0,0,0,0,0,0,0,0,0,0,0,0,0,0,0,0,0,0,0,0,0,0,0,0,0,0,0,0,0,0,0,0,0,0,0,0,0,0,0,0,0,0,0,0,0,0,0,0,0,0,0,0,0,-0.0234,-0.0233,0,-0.0196,-0.0196,-0.0195,-0.014,-0.0139,-0.0138,-0.0136,-0.0191,-0.0194,-0.0196,0,0,0,0,0,0,0,0,0,0,0,0,0,-0.0295,-0.0294,-0.0234,-0.0233,-0.0232,-0.0196,-0.0196,-0.0195,-0.014,-0.0139,-0.0137,-0.0136,-0.019,-0.0193,-0.0197,0,0,0,0,0,0,0,0,0,0,0,0,0,-0.0267,-0.0294,-0.0234,-0.0198,-0.0194,-0.0196,-0.0196,-0.0195,-0.0141,-0.0139,-0.0137,-0.0135,-0.0189,-0.0193,-0.0197,-0.026,0,0,-0.0209,-0.0211,0,0,0,0,0,0,0,0,-0.0269,-0.0265,-0.0204,-0.02,-0.0196,-0.0168,-0.0237,-0.022,-0.0141,-0.0165,-0.0136,-0.0134,-0.0191,-0.0195,-0.0195,-0.0262,-0.0265,-0.021,-0.0212,-0.0214,-0.0215,0,0,0,0,0,0,0,-0.0271,-0.0267,-0.0222,-0.0203,-0.0198,-0.0196,-0.019,-0.0234,-0.0194,-0.0162,-0.0157,-0.0148,-0.019,-0.0192,-0.0197,-0.0265,-0.0209,-0.0213,-0.0215,-0.0217,-0.0355,-0.0356,0,0,0,0,0,0,-0.0269,-0.0268,-0.0223,-0.0221,-0.0224,-0.0196,-0.0189,-0.0182,-0.0191,-0.0189,-0.015,-0.0146,-0.0186,-0.0192,-0.0198,-0.0221,-0.0214,-0.0217,-0.022,-0.0353,-0.0355,-0.0356,0,0,0,0,0,0,-0.027,-0.0265,-0.0225,-0.0241,-0.0235,-0.0196,-0.0188,-0.0182,-0.0145,-0.018,-0.018,-0.0115,-0.0185,-0.0193,-0.0219,-0.0224,-0.0219,-0.0223,-0.0352,-0.0354,-0.0356,-0.03,0,0,0,0,0,0,-0.0272,-0.0266,-0.0251,-0.0241,-0.0234,-0.0204,-0.019,-0.0182,-0.0143,-0.0136,-0.0151,-0.0156,-0.0184,-0.0213,-0.0223,-0.023,-0.0226,-0.035,-0.0353,-0.0355,-0.03,-0.03,-0.0299,0,0,0,0,0,-0.0275,-0.0261,-0.0251,-0.0245,-0.0218,-0.0203,-0.0199,-0.0168,-0.0143,-0.0128,-0.0144,-0.0153,-0.0236,-0.0217,-0.0229,-0.0236,-0.0349,-0.0352,-0.0355,-0.03,-0.03,-0.0299,0,0,0,0,0,0,-0.0278,-0.0254,-0.0242,-0.0221,-0.0203,-0.0191,-0.017,-0.0151,-0.0149,-0.0137,-0.0167,-0.0174,-0.0202,-0.0235,-0.0213,-0.0288,-0.0297,-0.0302,-0.0251,-0.0251,-0.0251,-0.0239,-0.0229,0,0,0,0,0,-0.0274,-0.0254,-0.0237,-0.0217,-0.0205,-0.0183,-0.0167,-0.0146,-0.0146,-0.0138,-0.0147,-0.018,-0.0233,-0.0247,-0.029,-0.0329,-0.0362,-0.0346,-0.0345,-0.0344,-0.0346,-0.0425,-0.0431,-0.0366,-0.0366,-0.0366,0,0,-0.0269,-0.0252,-0.024,-0.0216,-0.0197,-0.0184,-0.0168,-0.0134,-0.013,-0.0152,-0.0142,-0.0173,-0.0243,-0.0283,-0.03,-0.0303,-0.0374,-0.0348,-0.0346,-0.0349,-0.0429,-0.0435,-0.044,-0.0368,-0.0367,-0.0367,0,0,-0.0252,-0.0233,-0.0209,-0.0195,-0.0161,-0.016,-0.0142,-0.0115,-0.0105,-0.0107,-0.0138,-0.0177,-0.0215,-0.0284,-0.0325,-0.0357,-0.0369,-0.0354,-0.034,-0.0416,-0.0421,-0.0427,-0.0438,-0.0445,-0.0353,-0.0353,-0.0353,0,-0.0243,-0.0212,-0.0201,-0.0177,-0.0162,-0.0146,-0.0124,-0.013,-0.0113,-0.0129,-0.0093,-0.0191,-0.0231,-0.0337,-0.0329,-0.0357,-0.0365,-0.0328,-0.0413,-0.0419,-0.0426,-0.0436,-0.0445,-0.0351,-0.0351,-0.0351,-0.0351,0,-0.0215,-0.0183,-0.0166,-0.0139,-0.0132,-0.0103,-0.0113,-0.0106,-0.0086,-0.01,-0.0152,-0.0208,-0.0261,-0.0289,-0.0306,-0.0385,-0.0361,-0.0399,-0.0404,-0.0428,-0.0438,-0.0448,-0.0347,-0.0348,-0.0349,-0.0349,0,0,-0.0209,-0.0155,-0.0145,-0.0123,-0.0102,-0.0095,-0.0109,-0.0129,-0.0147,-0.0145,-0.0182,-0.0259,-0.0258,-0.0306,-0.0348,-0.041,-0.0439,-0.0392,-0.0398,-0.0384,-0.054,-0.0411,-0.0409,-0.0471,-0.0474,-0.0476,-0.0513,0,-0.0181,-0.0125,-0.0117,-0.0081,-0.0054,-0.0065,-0.0088,-0.0115,-0.0133,-0.017,-0.0249,-0.0285,-0.0279,-0.0282,-0.0345,-0.0432,-0.0467,-0.0422,-0.0536,-0.0539,-0.0407,-0.0418,-0.0483,-0.052,-0.0523,-0.0524,-0.0525,0,-0.0158,-0.0118,-0.0063,-0.0047,-0.004,-0.0027,-0.0064,-0.0078,-0.0159,-0.0171,-0.0224,-0.0264,-0.0349,-0.0333,-0.0469,-0.0423,-0.0454,-0.0517,-0.0522,-0.043,-0.0429,-0.0506,-0.0543,-0.0542,-0.0541,-0.0539,-0.0538,0,-0.0151,-0.0093,-0.0044,-0.003,-0.0012,-0.0004,-0.0003,-0.0065,-0.0105,-0.0153,-0.0187,-0.0278,-0.0323,-0.04,-0.0482,-0.0457,-0.0636,-0.0637,-0.0558,-0.0548,-0.0677,-0.0672,-0.0727,-0.0727,-0.0727,-0.0727,-0.0727,0,-0.0131,-0.0098,-0.0022,0.0006,0.0029,0.0038,0.0022,0.0003,-0.006,-0.014,-0.0159,-0.024,-0.0336,-0.0447,-0.0498,-0.0545,-0.0644,-0.0545,-0.0558,-0.0647,-0.0638,-0.0681,-0.0675,-0.0728,-0.0728,-0.0727,-0.0727,0,-0.014,-0.0084,-0.0031,0.0027,0.0041,0.0066,0.0051,0.0005,-0.0013,-0.0119,-0.0125,-0.0222,-0.0289,-0.0399,-0.0542,-0.0553,-0.0633,-0.063,-0.0685,-0.0702,-0.0473,-0.0465,-0.0504,-0.05,-0.0496,-0.0493,-0.0491,0,-0.014,-0.0099,-0.0014,0.0002,0.004,0.0069,0.0045,0.0037,-0.0037,-0.0131,-0.0215,-0.0254,-0.0315,-0.0399,-0.0491,-0.0543,-0.055,-0.058,-0.0529,-0.0446,-0.0456,-0.0452,-0.0448,-0.0485,-0.0485,-0.0484,-0.0483,0,-0.0149,-0.0104,-0.0066,-0.0026,-0.0009,-0.002,-0.0043,-0.0061,-0.0124,-0.0173,-0.023,-0.0232,-0.0299,-0.0332,-0.0364,-0.0431,-0.0557,-0.0543,-0.055,-0.0502,-0.0425,-0.0437,-0.0437,-0.0471,-0.0472,-0.0474,-0.0474,0,-0.0166,-0.0147,-0.0102,-0.0067,-0.0072,-0.0093,-0.0077,-0.0127,-0.0154,-0.0228,-0.0256,-0.0277,-0.0314,-0.0278,-0.0353,-0.0342,-0.0309,-0.032,-0.0338,-0.0351,-0.0283,-0.0161,-0.0131,0,0,0,0,0,-0.0187,-0.0176,-0.0164,-0.012,-0.0136,-0.0141,-0.0174,-0.0175,-0.0213,-0.0232,-0.0218,-0.0251,-0.0219,-0.0238,-0.0186,-0.0288,-0.0337,-0.0232,-0.0366,-0.0405,-0.0418,-0.035,0,0,0,0,0,0,-0.0205,-0.0197,-0.0178,-0.019,-0.0178,-0.0212,-0.0212,-0.0226,-0.0222,-0.0236,-0.0206,-0.023,-0.02,-0.0231,-0.0181,-0.0187,-0.0261,-0.024,-0.0239,-0.0397,-0.0409,-0.042,-0.0355,0,0,0,0,0]},{"header":{"parameterUnit":"m.s-1","parameterCategory":2,"la1":30.2991,"la2":30.254,"lo1":-89.0895,"lo2":-89.0444,"dy":0.0017,"dx":0.0017,"nx":28,"ny":28,"refTime":"2025-06-18T09:00:00:Z","depth":"4","parameterNumber":3,"parameterNumberName":"V-component_of_CURRENTS"},"data":[0,0,0,0,0,0,0,0,0,0,0,0,0,0,0,0,0,0,0,0,0,0,0,0,0,0,0,0,0,0,0,0,0,0,0,0,0,0,0,0,0,0,0,0,0,0,0,0,0,0,0,0,0,0,0,0,0,0,0.013,0.0129,0,0.0041,0.004,0.0039,0.0036,0.0037,0.0038,0.0039,0.0041,0.004,0.0039,0,0,0,0,0,0,0,0,0,0,0,0,0,0.0252,0.025,0.013,0.0129,0.0128,0.0041,0.004,0.0038,0.0035,0.0037,0.0038,0.004,0.0042,0.004,0.0039,0,0,0,0,0,0,0,0,0,0,0,0,0,0.0183,0.0249,0.013,0.0117,0.0115,0.0041,0.004,0.0038,0.0035,0.0037,0.0039,0.004,0.0042,0.004,0.0039,-0.0007,0,0,0.0034,0.0033,0,0,0,0,0,0,0,0,0.0187,0.0179,0.012,0.0118,0.0115,0.0052,0.0083,0.0028,0.0035,0.0064,0.0039,0.0041,0.0053,0.005,0.0027,-0.0007,-0.0006,0.0034,0.0033,0.0032,0.0032,0,0,0,0,0,0,0,0.0192,0.0182,0.0093,0.0119,0.0116,0.01,0.0092,0.0072,0.005,0.0062,0.0062,0.0053,0.0052,0.0028,0.0027,-0.0006,0.0034,0.0033,0.0032,0.0031,-0.0042,-0.0043,0,0,0,0,0,0,0.0205,0.0187,0.0096,0.0091,0.0158,0.0097,0.0088,0.007,0.0048,0.0047,0.0052,0.0053,0.003,0.0029,0.0027,-0.0004,0.0032,0.0031,0.003,-0.0041,-0.0042,-0.0043,0,0,0,0,0,0,0.0208,0.0198,0.01,0.0139,0.0125,0.0093,0.0072,0.0067,0.0053,0.004,0.004,0.0045,0.0031,0.0029,0.0006,-0.0005,0.003,0.0029,-0.004,-0.0041,-0.0043,-0.0082,0,0,0,0,0,0,0.0212,0.0199,0.0189,0.0139,0.0124,0.0054,0.007,0.0064,0.0045,0.0046,0.0034,0.0035,0.0032,0.0008,0.0004,-0.0006,0.0027,-0.0039,-0.0041,-0.0042,-0.0079,-0.0085,-0.0089,0,0,0,0,0,0.0216,0.019,0.0189,0.0178,0.0111,0.0053,0.0043,0.0026,0.0043,0.0023,0.0017,0.0036,-0.0005,0.0005,0.0001,-0.001,-0.0038,-0.004,-0.0042,-0.0077,-0.0084,-0.0089,0,0,0,0,0,0,0.0232,0.0186,0.0184,0.0144,0.0105,0.0054,0.0033,0.0026,0.0002,0.0015,0.0012,0.0011,-0.0012,-0.001,0.0002,-0.0036,-0.0014,-0.0018,-0.004,-0.0046,-0.005,-0.0048,0.0026,0,0,0,0,0,0.0232,0.0205,0.0159,0.0127,0.011,0.0074,0.0052,0.0041,0.0013,0.0004,-0.0002,-0.0008,-0.003,-0.0035,-0.0052,-0.0079,-0.0054,-0.0085,-0.009,-0.0094,-0.0095,-0.0078,-0.008,-0.0051,-0.0051,-0.0051,0,0,0.0228,0.0201,0.0185,0.0129,0.0101,0.0056,0.0065,0.0029,-0.0002,0.0009,-0.0024,-0.0028,-0.0043,-0.0074,-0.0082,-0.0069,-0.0088,-0.0097,-0.01,-0.0099,-0.008,-0.0083,-0.0085,-0.0052,-0.0052,-0.0052,0,0,0.0202,0.0184,0.0153,0.0117,0.0076,0.0048,0.0041,-0.0002,-0.0013,-0.0049,-0.0048,-0.0059,-0.0087,-0.0105,-0.0117,-0.0159,-0.0116,-0.0156,-0.0177,-0.016,-0.0162,-0.0163,-0.0124,-0.0121,-0.0155,-0.0155,-0.0155,0,0.0205,0.0155,0.0133,0.0091,0.0061,0.0046,0.0002,-0.0026,-0.0068,-0.008,-0.0056,-0.0103,-0.0105,-0.0156,-0.0165,-0.0169,-0.0141,-0.0154,-0.0165,-0.0166,-0.0167,-0.0126,-0.0122,-0.0157,-0.0157,-0.0157,-0.0157,0,0.0148,0.0113,0.009,0.0034,-0.0004,-0.0042,-0.0081,-0.0103,-0.0101,-0.0123,-0.0153,-0.0161,-0.018,-0.0186,-0.0187,-0.0206,-0.0178,-0.0174,-0.0147,-0.0172,-0.0127,-0.0123,-0.016,-0.016,-0.0159,-0.0158,0,0,0.0151,0.0068,0.0066,0.0031,-0.0032,-0.007,-0.0118,-0.017,-0.0192,-0.0207,-0.0236,-0.0263,-0.0242,-0.0253,-0.0252,-0.024,-0.0214,-0.0206,-0.0204,-0.016,-0.0153,-0.0193,-0.0191,-0.0207,-0.0207,-0.0206,-0.0115,0,0.0119,0.0044,0.0006,-0.0067,-0.0111,-0.0143,-0.019,-0.0232,-0.0248,-0.0277,-0.0278,-0.0297,-0.0277,-0.0271,-0.0262,-0.0236,-0.0207,-0.0237,-0.0141,-0.0138,-0.0166,-0.019,-0.0206,-0.0112,-0.0111,-0.011,-0.0109,0,0.0083,0.0036,-0.0021,-0.0114,-0.0134,-0.0155,-0.0215,-0.0263,-0.0307,-0.0316,-0.0331,-0.0338,-0.0341,-0.0303,-0.0256,-0.0273,-0.0209,-0.0176,-0.0172,-0.0194,-0.0171,-0.0085,-0.0101,-0.0102,-0.0103,-0.0103,-0.0104,0,0.0108,0.0012,-0.0023,-0.0053,-0.0146,-0.0147,-0.0183,-0.0237,-0.0285,-0.0312,-0.0337,-0.0351,-0.0338,-0.0288,-0.0221,-0.023,-0.0149,-0.0153,-0.0124,-0.0124,-0.0095,-0.0094,-0.0094,-0.0095,-0.0095,-0.0095,-0.0095,0,0.0084,0.0048,0.0012,-0.0007,-0.0039,-0.0105,-0.0135,-0.0175,-0.0238,-0.03,-0.0323,-0.0362,-0.0329,-0.0298,-0.0227,-0.0165,-0.0142,-0.0132,-0.0114,-0.0112,-0.0115,-0.009,-0.0091,-0.0092,-0.0092,-0.0093,-0.0094,0,0.0106,0.0078,0.0037,-0.0014,-0.0016,-0.0021,-0.0092,-0.0154,-0.0186,-0.0261,-0.0272,-0.0347,-0.0329,-0.0286,-0.0203,-0.0172,-0.0103,-0.0069,-0.0052,-0.0033,-0.0086,-0.0089,-0.0059,-0.006,-0.0061,-0.0062,-0.0062,0,0.0097,0.0092,0.0074,0.0068,0.0069,0.0048,-0.0002,-0.0085,-0.0166,-0.0259,-0.0315,-0.0328,-0.0362,-0.0263,-0.0225,-0.0113,-0.0094,-0.0042,-0.0096,-0.0102,-0.0086,-0.0089,-0.0092,-0.0063,-0.0063,-0.0064,-0.0064,0,0.0078,0.0113,0.0081,0.0101,0.0087,-0.0007,-0.0065,-0.0101,-0.0227,-0.0262,-0.0333,-0.0332,-0.0327,-0.029,-0.0196,-0.0117,-0.0086,-0.0049,-0.0048,-0.0099,-0.0106,-0.0091,-0.0093,-0.0066,-0.0066,-0.0066,-0.0066,0,0.0085,0.007,0.0075,0.0085,0.0062,-0.0036,-0.0077,-0.0175,-0.025,-0.0334,-0.0342,-0.034,-0.0341,-0.029,-0.0207,-0.0147,-0.0154,-0.0122,-0.0117,-0.0114,-0.0179,-0.0198,-0.0176,0,0,0,0,0,0.0076,0.0046,0.0035,0.001,-0.0006,-0.0008,-0.0142,-0.0206,-0.0268,-0.0315,-0.0328,-0.0321,-0.0275,-0.0274,-0.0221,-0.0244,-0.0151,-0.0184,-0.0113,-0.0081,-0.0078,-0.0153,0,0,0,0,0,0,0.0044,0.0043,0.0014,-0.0032,-0.0014,-0.0099,-0.0149,-0.022,-0.0255,-0.0276,-0.0253,-0.0261,-0.022,-0.0252,-0.0184,-0.018,-0.0127,-0.0167,-0.0166,-0.0082,-0.008,-0.0077,-0.0153,0,0,0,0,0]}]]